Regional Weather Roundup
Issued by NWS

Home | Current Version | Previous Version | Graphics & Text | Print | Product List | Glossary On
Versions: 1 2 3 4 5 6 7 8 9 10 11 12 13 14 15 16 17 18 19 20 21 22 23 24 25 26 27 28 29 30 31 32 33 34 35 36 37 38 39 40 41 42 43 44 45 46 47 48 49 50
427
ASUS45 KBOU 251210
RWRCO

WEATHER ROUNDUP FOR COLORADO
NATIONAL WEATHER SERVICE PUEBLO CO
600 AM MDT WED APR 25 2018

NOTE: "FAIR" INDICATES FEW OR NO CLOUDS BELOW 12000 FEET WITH NO
SIGNIFICANT WEATHER AND/OR OBSTRUCTIONS TO VISIBILITY.

COZ001>005-013-030-031-251300-
...NORTHWEST COLORADO...

CITY           SKY/WX    TMP DP  RH WIND       PRES   REMARKS
CRAIG          CLEAR     21  17  84 CALM      30.41S
HAYDEN         CLEAR     23  19  85 SE5       30.41S WCI  17
MEEKER         CLEAR     22  17  81 CALM      30.39F
RABBIT EARS PA NOT AVBL
STEAMBOAT SPGS FAIR      23  20  87 CALM      30.40S
WALDEN         FAIR      14  10  85 CALM      30.40S
$$

COZ006>008-011-251300-
...WEST CENTRAL VALLEYS...

CITY           SKY/WX    TMP DP  RH WIND       PRES   REMARKS
GRAND JUNCTION CLEAR     38  17  42 CALM      30.33S
MONTROSE       CLEAR     30  19  63 SE7       30.37S WCI  23
EAGLE          CLEAR     26  20  77 CALM      30.43R
RIFLE          CLEAR     29  23  78 E3        30.38S
DELTA          NOT AVBL
NUCLA          FAIR      36  12  38 S3        30.33S
$$

COZ017>023-064>068-251300-
...SOUTHWEST COLORADO...

CITY           SKY/WX    TMP DP  RH WIND       PRES   REMARKS
DURANGO        CLEAR     31  14  49 NE7       30.23R WCI  24
CORTEZ         CLEAR     30  10  43 CALM      30.22S
PAGOSA SPRINGS FAIR      33  10  38 CALM      30.29R
TELLURIDE      CLEAR     29  16  58 SE8       30.35F WCI  21
WOLF CREEK PAS CLEAR     27  -8  22 N14G24    30.45S WCI  15
$$

COZ009-010-012-014-032>034-037-058>063-251300-
...CENTRAL COLORADO...

CITY           SKY/WX    TMP DP  RH WIND       PRES   REMARKS
ASPEN          PTCLDY    26  16  65 SW3       30.37R
BUENA VISTA    FAIR      24  21  89 CALM      30.36S
COPPER MTN     NOT AVBL
BERTHOUD PASS  FAIR      10   1  67 NW9G16    30.38R WCI  -2
COTTONWOOD PAS PTCLDY    30  18  59 W5        30.36S WCI  25
GUNNISON       CLEAR     21  15  78 CALM      30.39R
KREMMLING      CLEAR     23  19  86 CALM      30.43R
LEADVILLE      PTCLDY    16  13  88 NE6       30.38S WCI   7
MONARCH PASS   CLEAR     21   3  45 W12       30.51R WCI   9
SALIDA         FAIR      27  23  86 W3        30.45S
SUNLIGHT       CLEAR     23   1  39 CALM      30.43R
WILKERSON PASS PTCLDY    19  14  79 N9        30.38R WCI   9
$$

COZ069>075-251300-
...SAN LUIS VALLEY/SANGRE DE CRISTO MOUNTAINS...

CITY           SKY/WX    TMP DP  RH WIND       PRES   REMARKS
ALAMOSA        PTCLDY    22  17  81 S5        30.33S WCI  16
DEL NORTE      FAIR      22  18  87 CALM      30.34R
LA VETA PASS   PTCLDY    23  19  86 MISG      30.45S
SAGUACHE       NOT AVBL
$$

COZ035-036-038>040-251300-
...NORTHERN COLORADO FRONT RANGE...

CITY           SKY/WX    TMP DP  RH WIND       PRES   REMARKS
DENVER INTL AP PTCLDY    33  23  66 S5        30.34F WCI  29
DMNS CITY PARK NOT AVBL
AURORA         PTCLDY    28  24  87 S6        30.35F WCI  21
FRONT RANGE AP FAIR      32  26  79 SW3       30.36S
ERIE MUNI ARPT FAIR      30  29  96 CALM      30.41S
BOULDER MUN AP FAIR      32  27  80 SW6       30.35S WCI  26
CENTENNIAL     CLEAR     28  27  96 S5        30.34F WCI  23
BROOMFIELD     CLEAR     30  28  93 W6        30.35S WCI  24
LOVELAND       CLEAR     32  29  88 S3        30.35F
LONGMONT       FAIR      32  29  88 SW3       30.38S
$$

COZ041-046-047-076>085-087-088-251300-
...PIKES PEAK/PALMER DIVIDE AND SOUTHERN FOOTHILLS...

CITY           SKY/WX    TMP DP  RH WIND       PRES   REMARKS
COLO. SPRINGS  MOCLDY    29  26  89 CALM      30.35F
A. F. ACADEMY  CLEAR     21  20  96 N6        30.34F WCI  13
SCHRIEVER AFB  NOT AVBL
CHEYENNE MTN   NOT AVBL
ELLICOTT         N/A    N/A N/A N/A N7        30.34F
FALCON         FAIR      25  24  96 NW3       30.35F
FORT CARSON    PTCLDY    33  30  91 S3        30.34F
LIMON          CLEAR     25  23  92 W9        30.35S WCI  15
MONUMENT HILL  FOG       23  23 100 SW5       30.34F VSB 3/4 WCI  17
CANON CITY     FAIR      32  30  93 CALM      30.36S
WALSENBURG     FAIR      23  19  86 CALM      30.36S
TRINIDAD       MOCLDY    30  29  96 SW8       30.37S WCI  22
$$

COZ042>045-048>051-090-091-251300-
...NORTHEAST COLORADO...

CITY           SKY/WX    TMP DP  RH WIND       PRES   REMARKS
GREELEY ARPT   CLEAR     25  23  92 NE3       30.37S
AKRON          CLEAR     25  24  96 NW5       30.34F WCI  19
BURLINGTON     CLEAR     26  25  96 NW7       30.35S WCI  18
WRAY           FAIR      30  28  93 NW9       30.36F WCI  22
YUMA           NOT AVBL
STERLING       NOT AVBL
HOLYOKE        FAIR      32  30  93 W10       30.35F WCI  24
FORT MORGAN    FAIR      26  24  91 CALM      30.36F
$$

COZ086-089-092>099-251300-
...SOUTHEAST COLORADO...

CITY           SKY/WX    TMP DP  RH WIND       PRES   REMARKS
PUEBLO         CLEAR     34  32  92 N3        30.36F
LA JUNTA       CLEAR     33  31  92 W9        30.37F WCI  25
LAMAR          CLEAR     33  29  85 SW3       30.36S
SPRINGFIELD      N/A     31  30  96 NW12      30.33F WCI  22
$$





USA.gov is the U.S. government's official web portal to all federal, state and local government web resources and services.